MAH440 LHBP-LWSK

Flight info

Callsign MAH440
Flight time 1h 8m
Altitude 39000
Route FAHAZ DCT KEROP DCT REDVA UL616 KOGAT
Aircraft B737/M-SDFGIRWY/S

Departure

Time 2026-05-08 11:31
Airport Budapest Liszt Ferenc International Airport (LHBP)

Arrival

Time 2026-05-08 12:40
Airport Skopje International Airport (LWSK)
Time Latitude Longitude Altitude Speed Heading
2026-05-08 11:19 47.43450 19.26245 475 ft 0 kts 221°
2026-05-08 11:19 47.43453 19.26249 475 ft 2 kts 221°
2026-05-08 11:20 47.43464 19.26264 475 ft 2 kts 221°
2026-05-08 11:20 47.43475 19.26278 475 ft 2 kts 221°
2026-05-08 11:20 47.43486 19.26293 475 ft 2 kts 229°
2026-05-08 11:20 47.43490 19.26313 475 ft 2 kts 277°
2026-05-08 11:21 47.43487 19.26329 475 ft 0 kts 308°
2026-05-08 11:21 47.43487 19.26327 475 ft 2 kts 306°
2026-05-08 11:21 47.43512 19.26287 475 ft 4 kts 312°
2026-05-08 11:21 47.43523 19.26268 476 ft 0 kts 312°
2026-05-08 11:24 47.43524 19.26268 476 ft 0 kts 312°
2026-05-08 11:24 47.43534 19.26251 476 ft 4 kts 313°
2026-05-08 11:24 47.43567 19.26203 476 ft 8 kts 326°
2026-05-08 11:25 47.43630 19.26138 476 ft 13 kts 310°
2026-05-08 11:25 47.43696 19.26030 477 ft 13 kts 312°
2026-05-08 11:25 47.43733 19.25960 477 ft 8 kts 288°
2026-05-08 11:25 47.43709 19.25877 477 ft 11 kts 223°
2026-05-08 11:26 47.43633 19.25775 474 ft 18 kts 222°
2026-05-08 11:26 47.43522 19.25625 471 ft 24 kts 222°
2026-05-08 11:26 47.43389 19.25448 464 ft 27 kts 222°
2026-05-08 11:26 47.43244 19.25252 457 ft 29 kts 222°
2026-05-08 11:27 47.43162 19.25143 452 ft 1 kts 222°
2026-05-08 11:27 47.43152 19.25130 452 ft 0 kts 222°
2026-05-08 11:27 47.43151 19.25129 452 ft 0 kts 222°
2026-05-08 11:29 47.43149 19.25126 452 ft 2 kts 222°
2026-05-08 11:30 47.43121 19.25088 451 ft 8 kts 222°
2026-05-08 11:30 47.43070 19.25016 448 ft 5 kts 255°
2026-05-08 11:30 47.43096 19.24942 448 ft 10 kts 313°
2026-05-08 11:30 47.43258 19.24682 444 ft 67 kts 312°
2026-05-08 11:31 47.43717 19.23940 439 ft 125 kts 312°
2026-05-08 11:31 47.44393 19.22845 629 ft 151 kts 311°
2026-05-08 11:31 47.45085 19.21726 1113 ft 154 kts 311°
2026-05-08 11:31 47.45838 19.20526 1547 ft 162 kts 313°
2026-05-08 11:32 47.46600 19.19286 1999 ft 170 kts 311°
2026-05-08 11:32 47.47422 19.17921 2453 ft 189 kts 311°
2026-05-08 11:32 47.48326 19.16421 3027 ft 202 kts 309°
2026-05-08 11:32 47.48943 19.14517 3578 ft 218 kts 280°
2026-05-08 11:33 47.48873 19.12230 4153 ft 234 kts 257°
2026-05-08 11:33 47.48242 19.09973 4837 ft 245 kts 240°
2026-05-08 11:33 47.47065 19.08054 5300 ft 265 kts 215°
2026-05-08 11:33 47.45401 19.06815 5999 ft 274 kts 203°
2026-05-08 11:34 47.43637 19.05754 6854 ft 277 kts 203°
2026-05-08 11:34 47.41867 19.04637 7705 ft 281 kts 203°
2026-05-08 11:34 47.39969 19.04035 8556 ft 285 kts 182°
2026-05-08 11:34 47.37987 19.04140 9428 ft 289 kts 176°
2026-05-08 11:35 47.35984 19.04344 10302 ft 294 kts 178°
2026-05-08 11:35 47.33910 19.04476 10947 ft 307 kts 179°
2026-05-08 11:35 47.31734 19.04531 11552 ft 321 kts 180°
2026-05-08 11:35 47.29467 19.04552 12218 ft 333 kts 181°
2026-05-08 11:36 47.27136 19.04564 13082 ft 339 kts 181°
2026-05-08 11:36 47.24779 19.04576 14012 ft 343 kts 181°
2026-05-08 11:36 47.22398 19.04588 14954 ft 347 kts 181°
2026-05-08 11:36 47.19986 19.04604 15919 ft 350 kts 181°
2026-05-08 11:37 47.17554 19.04625 16856 ft 354 kts 181°
2026-05-08 11:37 47.15096 19.04648 17736 ft 358 kts 181°
2026-05-08 11:37 47.12600 19.04669 18570 ft 363 kts 181°
2026-05-08 11:37 47.10070 19.04691 19379 ft 368 kts 182°
2026-05-08 11:38 47.07510 19.04712 20189 ft 372 kts 182°
2026-05-08 11:38 47.04916 19.04732 20962 ft 376 kts 183°
2026-05-08 11:38 47.02297 19.04753 21730 ft 380 kts 183°
2026-05-08 11:38 46.99647 19.04772 22425 ft 385 kts 184°
2026-05-08 11:39 46.96963 19.04790 23117 ft 389 kts 184°
2026-05-08 11:39 46.94259 19.04818 23830 ft 393 kts 184°
2026-05-08 11:39 46.91522 19.05062 24570 ft 398 kts 178°
2026-05-08 11:39 46.88792 19.05876 25269 ft 407 kts 168°
2026-05-08 11:40 46.86147 19.07423 25958 ft 415 kts 158°
2026-05-08 11:40 46.83611 19.09483 26562 ft 422 kts 154°
2026-05-08 11:40 46.81118 19.11751 27178 ft 426 kts 153°
2026-05-08 11:40 46.78631 19.14106 27757 ft 430 kts 152°
2026-05-08 11:41 46.76128 19.16493 28333 ft 433 kts 152°
2026-05-08 11:41 46.73604 19.18893 28890 ft 436 kts 153°
2026-05-08 11:41 46.71055 19.21305 29442 ft 439 kts 153°
2026-05-08 11:41 46.68467 19.23738 29947 ft 443 kts 153°
2026-05-08 11:42 46.65857 19.26176 30455 ft 447 kts 153°
2026-05-08 11:42 46.63227 19.28620 30993 ft 450 kts 153°
2026-05-08 11:42 46.60591 19.31064 31540 ft 452 kts 153°
2026-05-08 11:42 46.57949 19.33509 32291 ft 449 kts 153°
2026-05-08 11:43 46.55333 19.35929 33028 ft 446 kts 153°
2026-05-08 11:43 46.52732 19.38330 33696 ft 445 kts 153°
2026-05-08 11:43 46.50134 19.40723 34324 ft 443 kts 153°
2026-05-08 11:43 46.47539 19.43108 34849 ft 443 kts 153°
2026-05-08 11:44 46.44947 19.45487 35335 ft 441 kts 153°
2026-05-08 11:44 46.42374 19.47846 35805 ft 439 kts 153°
2026-05-08 11:44 46.39809 19.50196 36288 ft 436 kts 153°
2026-05-08 11:44 46.37257 19.52528 36738 ft 436 kts 153°
2026-05-08 11:45 46.34705 19.54858 37241 ft 436 kts 153°
2026-05-08 11:45 46.32149 19.57188 37682 ft 435 kts 153°
2026-05-08 11:45 46.29598 19.59511 38113 ft 434 kts 153°
2026-05-08 11:45 46.27054 19.61825 38542 ft 433 kts 153°
2026-05-08 11:46 46.24509 19.64137 38871 ft 434 kts 153°
2026-05-08 11:46 46.21934 19.66439 39028 ft 436 kts 155°
2026-05-08 11:46 46.19272 19.68562 39022 ft 438 kts 160°
2026-05-08 11:47 46.13601 19.71341 39020 ft 427 kts 173°
2026-05-08 11:47 46.07818 19.73073 39024 ft 425 kts 175°
2026-05-08 11:48 46.02027 19.74659 39019 ft 422 kts 175°
2026-05-08 11:48 45.96260 19.76273 39027 ft 423 kts 174°
2026-05-08 11:49 45.90477 19.77930 39023 ft 423 kts 174°
2026-05-08 11:49 45.84721 19.79603 39020 ft 422 kts 174°
2026-05-08 11:50 45.78961 19.81282 39022 ft 423 kts 174°
2026-05-08 11:50 45.73216 19.82959 39022 ft 422 kts 174°
2026-05-08 11:51 45.67491 19.84629 39023 ft 421 kts 174°
2026-05-08 11:51 45.61765 19.86295 39016 ft 420 kts 174°
2026-05-08 11:52 45.56050 19.87953 39018 ft 419 kts 174°
2026-05-08 11:52 45.50353 19.89601 39021 ft 419 kts 174°
2026-05-08 11:53 45.44647 19.91248 39014 ft 420 kts 174°
2026-05-08 11:53 45.38924 19.92898 39022 ft 420 kts 174°
2026-05-08 11:54 45.33239 19.94536 39007 ft 418 kts 174°
2026-05-08 11:54 45.27540 19.96170 39009 ft 418 kts 174°
2026-05-08 11:55 45.21845 19.97802 39007 ft 419 kts 174°
2026-05-08 11:55 45.16153 19.99430 39005 ft 418 kts 173°
2026-05-08 11:56 45.10468 20.01054 39012 ft 415 kts 173°
2026-05-08 11:56 45.04812 20.02665 39010 ft 416 kts 173°
2026-05-08 11:57 44.99160 20.04272 39013 ft 414 kts 173°
2026-05-08 11:57 44.93519 20.05872 39013 ft 414 kts 173°
2026-05-08 11:58 44.87853 20.07473 39013 ft 416 kts 173°
2026-05-08 11:58 44.82188 20.09073 39011 ft 416 kts 173°
2026-05-08 11:59 44.73677 20.11472 39011 ft 416 kts 173°
2026-05-08 11:59 44.68018 20.13066 39010 ft 414 kts 173°
2026-05-08 12:00 44.62384 20.14648 39006 ft 414 kts 173°
2026-05-08 12:00 44.56743 20.16227 39002 ft 414 kts 173°
2026-05-08 12:01 44.51097 20.17804 38999 ft 415 kts 173°
2026-05-08 12:01 44.45451 20.19377 39000 ft 415 kts 173°
2026-05-08 12:02 44.39809 20.20947 39000 ft 414 kts 173°
2026-05-08 12:02 44.34165 20.22515 39010 ft 414 kts 173°
2026-05-08 12:03 44.28540 20.24074 39021 ft 413 kts 173°
2026-05-08 12:03 44.22922 20.25629 39025 ft 412 kts 173°
2026-05-08 12:04 44.17305 20.27180 39031 ft 413 kts 173°
2026-05-08 12:04 44.11677 20.28731 39035 ft 412 kts 172°
2026-05-08 12:05 44.06064 20.30277 39040 ft 412 kts 173°
2026-05-08 12:05 44.00433 20.31822 39042 ft 412 kts 172°
2026-05-08 12:06 43.94807 20.33364 39042 ft 413 kts 172°
2026-05-08 12:06 43.89199 20.34899 39040 ft 412 kts 172°
2026-05-08 12:07 43.83551 20.36440 39038 ft 415 kts 172°
2026-05-08 12:07 43.77895 20.37980 39041 ft 415 kts 172°
2026-05-08 12:08 43.72237 20.39518 39042 ft 415 kts 172°
2026-05-08 12:08 43.66579 20.41054 39040 ft 415 kts 172°
2026-05-08 12:09 43.60921 20.42588 39050 ft 415 kts 172°
2026-05-08 12:09 43.55262 20.44118 39056 ft 415 kts 172°
2026-05-08 12:10 43.49608 20.45644 39062 ft 415 kts 172°
2026-05-08 12:10 43.43950 20.47168 39056 ft 415 kts 172°
2026-05-08 12:11 43.38287 20.48689 39054 ft 415 kts 172°
2026-05-08 12:11 43.32624 20.50209 39045 ft 415 kts 172°
2026-05-08 12:12 43.26963 20.51725 39051 ft 417 kts 173°
2026-05-08 12:12 43.24129 20.52482 38916 ft 414 kts 172°
2026-05-08 12:12 43.21332 20.53232 38530 ft 409 kts 172°
2026-05-08 12:13 43.18557 20.53975 38024 ft 405 kts 172°
2026-05-08 12:13 43.15803 20.54711 37443 ft 403 kts 171°
2026-05-08 12:13 43.13070 20.55440 36864 ft 400 kts 171°
2026-05-08 12:13 43.10343 20.56165 36293 ft 400 kts 171°
2026-05-08 12:14 43.07619 20.56889 35808 ft 401 kts 171°
2026-05-08 12:14 43.04884 20.57609 35218 ft 402 kts 171°
2026-05-08 12:14 43.02147 20.58417 34580 ft 405 kts 167°
2026-05-08 12:14 42.99461 20.59507 34062 ft 403 kts 162°
2026-05-08 12:15 42.96839 20.60783 33575 ft 399 kts 160°
2026-05-08 12:15 42.94250 20.62137 33121 ft 402 kts 160°
2026-05-08 12:15 42.91633 20.63542 32656 ft 405 kts 159°
2026-05-08 12:15 42.89044 20.64943 32198 ft 400 kts 159°
2026-05-08 12:16 42.86546 20.66294 31753 ft 395 kts 160°
2026-05-08 12:16 42.84002 20.67654 31299 ft 390 kts 160°
2026-05-08 12:16 42.81504 20.68986 30852 ft 386 kts 160°
2026-05-08 12:16 42.78993 20.70320 30407 ft 391 kts 161°
2026-05-08 12:17 42.76464 20.71660 29942 ft 389 kts 161°
2026-05-08 12:17 42.73976 20.72979 29493 ft 384 kts 161°
2026-05-08 12:17 42.71500 20.74280 29044 ft 380 kts 161°
2026-05-08 12:17 42.69050 20.75567 28587 ft 376 kts 161°
2026-05-08 12:18 42.66626 20.76846 28140 ft 372 kts 161°
2026-05-08 12:18 42.64227 20.78102 27696 ft 369 kts 161°
2026-05-08 12:18 42.61851 20.79341 27254 ft 366 kts 161°
2026-05-08 12:18 42.59456 20.80578 26808 ft 370 kts 161°
2026-05-08 12:19 42.57058 20.81811 26347 ft 369 kts 161°
2026-05-08 12:19 42.54673 20.83042 25890 ft 365 kts 161°
2026-05-08 12:19 42.52314 20.84253 25436 ft 361 kts 161°
2026-05-08 12:19 42.49983 20.85474 24974 ft 358 kts 161°
2026-05-08 12:20 42.47671 20.86688 24500 ft 355 kts 161°
2026-05-08 12:20 42.45383 20.87890 24055 ft 352 kts 161°
2026-05-08 12:20 42.43115 20.89077 23610 ft 348 kts 161°
2026-05-08 12:20 42.40868 20.90248 23167 ft 345 kts 161°
2026-05-08 12:21 42.38647 20.91405 22739 ft 342 kts 161°
2026-05-08 12:21 42.36430 20.92558 22301 ft 340 kts 161°
2026-05-08 12:21 42.34232 20.93700 21861 ft 337 kts 161°
2026-05-08 12:21 42.32054 20.94828 21429 ft 335 kts 161°
2026-05-08 12:22 42.29886 20.95949 20998 ft 332 kts 162°
2026-05-08 12:22 42.27737 20.97056 20563 ft 330 kts 161°
2026-05-08 12:22 42.25599 20.98158 20127 ft 328 kts 161°
2026-05-08 12:22 42.23476 20.99250 19699 ft 325 kts 162°
2026-05-08 12:23 42.21376 21.00331 19268 ft 323 kts 162°
2026-05-08 12:23 42.19280 21.01411 18854 ft 320 kts 162°
2026-05-08 12:23 42.17212 21.02476 18448 ft 317 kts 162°
2026-05-08 12:23 42.15159 21.03532 18023 ft 314 kts 162°
2026-05-08 12:24 42.13148 21.04673 17596 ft 313 kts 156°
2026-05-08 12:24 42.11357 21.06387 17180 ft 324 kts 137°
2026-05-08 12:24 42.10120 21.08926 16768 ft 329 kts 117°
2026-05-08 12:24 42.09251 21.11758 16337 ft 327 kts 114°
2026-05-08 12:25 42.08433 21.14596 15920 ft 324 kts 114°
2026-05-08 12:25 42.07611 21.17403 15493 ft 321 kts 115°
2026-05-08 12:25 42.06784 21.20169 15076 ft 318 kts 114°
2026-05-08 12:25 42.05952 21.22908 14646 ft 316 kts 115°
2026-05-08 12:26 42.05146 21.25630 14233 ft 313 kts 113°
2026-05-08 12:26 42.04344 21.28320 13825 ft 308 kts 114°
2026-05-08 12:26 42.03521 21.30962 13419 ft 305 kts 115°
2026-05-08 12:26 42.02697 21.33566 13019 ft 301 kts 115°
2026-05-08 12:27 42.01886 21.36146 12627 ft 298 kts 115°
2026-05-08 12:27 42.01087 21.38705 12228 ft 296 kts 114°
2026-05-08 12:27 42.00295 21.41252 11836 ft 293 kts 114°
2026-05-08 12:27 41.99513 21.43763 11480 ft 289 kts 114°
2026-05-08 12:28 41.98742 21.46243 11063 ft 288 kts 114°
2026-05-08 12:28 41.97976 21.48704 10669 ft 286 kts 114°
2026-05-08 12:28 41.97216 21.51144 10298 ft 283 kts 114°
2026-05-08 12:28 41.96463 21.53564 10012 ft 277 kts 113°
2026-05-08 12:29 41.95735 21.55904 9820 ft 268 kts 114°
2026-05-08 12:29 41.95018 21.58204 9439 ft 267 kts 113°
2026-05-08 12:29 41.94285 21.60477 9087 ft 265 kts 117°
2026-05-08 12:29 41.93269 21.62514 8741 ft 262 kts 134°
2026-05-08 12:30 41.91749 21.63827 8401 ft 262 kts 157°
2026-05-08 12:30 41.89997 21.64466 8055 ft 261 kts 165°
2026-05-08 12:30 41.88238 21.65010 7725 ft 261 kts 165°
2026-05-08 12:30 41.86485 21.65578 7351 ft 261 kts 165°
2026-05-08 12:31 41.84727 21.66158 7043 ft 258 kts 165°
2026-05-08 12:31 41.83003 21.66724 6921 ft 249 kts 164°
2026-05-08 12:31 41.81421 21.67479 6859 ft 235 kts 146°
2026-05-08 12:31 41.80453 21.69118 6789 ft 224 kts 111°
2026-05-08 12:32 41.80046 21.71102 6720 ft 218 kts 107°
2026-05-08 12:32 41.79505 21.72964 6642 ft 211 kts 118°
2026-05-08 12:32 41.78779 21.74632 6559 ft 203 kts 123°
2026-05-08 12:32 41.77986 21.76179 6366 ft 202 kts 134°
2026-05-08 12:33 41.76765 21.77080 6091 ft 206 kts 167°
2026-05-08 12:33 41.75329 21.76962 5804 ft 210 kts 193°
2026-05-08 12:33 41.74010 21.76147 5543 ft 209 kts 213°
2026-05-08 12:33 41.73155 21.74611 5295 ft 210 kts 250°
2026-05-08 12:34 41.73080 21.72688 5050 ft 208 kts 277°
2026-05-08 12:34 41.73487 21.70873 4888 ft 202 kts 298°
2026-05-08 12:34 41.74453 21.69595 4718 ft 194 kts 336°
2026-05-08 12:34 41.75720 21.69138 4562 ft 185 kts 352°
2026-05-08 12:35 41.76962 21.68777 4409 ft 180 kts 348°
2026-05-08 12:35 41.78171 21.68361 4211 ft 178 kts 348°
2026-05-08 12:35 41.79369 21.67948 4007 ft 177 kts 348°
2026-05-08 12:35 41.80546 21.67544 3836 ft 173 kts 348°
2026-05-08 12:36 41.81690 21.67148 3718 ft 168 kts 348°
2026-05-08 12:36 41.82830 21.66758 3479 ft 171 kts 348°
2026-05-08 12:36 41.83991 21.66353 3221 ft 173 kts 348°
2026-05-08 12:36 41.85133 21.65961 2964 ft 166 kts 347°
2026-05-08 12:37 41.86235 21.65580 2738 ft 159 kts 347°
2026-05-08 12:37 41.87271 21.65220 2492 ft 151 kts 348°
2026-05-08 12:37 41.88261 21.64879 2268 ft 145 kts 347°
2026-05-08 12:37 41.89213 21.64556 2064 ft 139 kts 347°
2026-05-08 12:38 41.90165 21.64209 1883 ft 140 kts 348°
2026-05-08 12:38 41.91100 21.63900 1662 ft 135 kts 350°
2026-05-08 12:38 41.92010 21.63584 1485 ft 135 kts 348°
2026-05-08 12:38 41.92932 21.63267 1287 ft 141 kts 347°
2026-05-08 12:39 41.93863 21.62928 1066 ft 140 kts 347°
2026-05-08 12:39 41.94787 21.62612 883 ft 134 kts 349°
2026-05-08 12:39 41.95673 21.62311 778 ft 124 kts 349°
2026-05-08 12:39 41.96467 21.62048 781 ft 79 kts 346°
2026-05-08 12:40 41.96810 21.61919 782 ft 39 kts 345°
2026-05-08 12:40 41.97024 21.61847 782 ft 18 kts 346°
2026-05-08 12:40 41.97147 21.61801 781 ft 11 kts 339°
2026-05-08 12:40 41.97194 21.61734 780 ft 10 kts 352°
2026-05-08 12:41 41.97194 21.61784 781 ft 9 kts 163°
2026-05-08 12:41 41.97109 21.61812 781 ft 15 kts 165°
2026-05-08 12:41 41.97008 21.61879 783 ft 15 kts 76°
2026-05-08 12:41 41.96974 21.61996 785 ft 13 kts 128°
2026-05-08 12:42 41.96917 21.62092 787 ft 12 kts 129°
2026-05-08 12:42 41.96856 21.62171 788 ft 12 kts 158°
2026-05-08 12:42 41.96772 21.62201 788 ft 13 kts 165°
2026-05-08 12:42 41.96670 21.62237 788 ft 17 kts 166°
2026-05-08 12:43 41.96545 21.62279 787 ft 19 kts 166°
2026-05-08 12:43 41.96411 21.62323 786 ft 20 kts 165°
2026-05-08 12:43 41.96290 21.62373 786 ft 9 kts 135°
2026-05-08 12:43 41.96287 21.62441 788 ft 3 kts 116°
2026-05-08 12:44 41.96246 21.62470 789 ft 9 kts 162°
2026-05-08 12:44 41.96176 21.62497 788 ft 9 kts 164°
2026-05-08 12:44 41.96111 21.62515 789 ft 9 kts 157°
2026-05-08 12:44 41.96100 21.62565 789 ft 3 kts 76°
2026-05-08 12:45 41.96103 21.62582 789 ft 0 kts 76°